Flag for Germany Weather past 2 weeks in Westerland, Schleswig-Holstein, Germany

Now
52 °F

Scattered clouds.


Feels Like: 46 °F
Forecast: 49 / 54 °F
Wind: 20 mph from Northwest

Location: Westerland / Sylt

Current Time: May 26, 2015 at 6:26:02 PM

Latest Report: May 26, 2015 at 5:50 PM


Visibility: N/A

Pressure: 30.07 "Hg

Humidity: 72%

Dew point: 43 °F

Location of WesterlandLocation

Historic Weather in Westerland — Graph

°F

Westerland temperature yesterday

Maximum temperature yesterday: 54 °F (at 10:50 AM)
Minimum temperature yesterday: 48 °F (at 8:50 PM)
Average temperature yesterday: 52 °F

Past Weeks' High & Low Weather Summary

 TemperatureHumidityPressure
High66 °F (May 11, 5:20 PM)100% (May 16, 1:50 PM)30.24 "Hg (May 16, 1:50 PM)
Low46 °F (May 14, 6:50 AM)63% (May 17, 12:50 PM)29.50 "Hg (May 19, 8:50 AM)
Average51 °F77%29.98 "Hg
* Reported May 11 5:20 PM — May 26 5:20 PM, Westerland, Weather by CustomWeather, © 2015

Note: Actual official high and low records may vary slightly from our data, if they occured in-between our weather recording intervals... More about our weather records

Advertising

Westerland weather history for previous 24 hours

 ConditionsComfort  
Time TempWeatherWind HumidityBarometerVisibility
5:20 PM
Tue, May 26
54 °FBroken clouds.21 mph72%30.07 "HgN/A
4:50 PM52 °FBroken clouds.20 mph72%30.07 "HgN/A
4:20 PM52 °FPartly sunny.18 mph77%30.07 "HgN/A
3:50 PM52 °FBroken clouds.20 mph72%30.07 "HgN/A
3:20 PM52 °FBroken clouds.18 mph72%30.04 "HgN/A
2:50 PM52 °FPartly sunny.20 mph67%30.04 "HgN/A
2:20 PM54 °FScattered clouds.18 mph67%30.04 "HgN/A
1:50 PM54 °FPassing clouds.20 mph72%30.04 "HgN/A
1:20 PM54 °FScattered clouds.18 mph67%30.04 "HgN/A
12:50 PM52 °FScattered clouds.17 mph72%30.04 "HgN/A
12:20 PM52 °FPartly sunny.17 mph72%30.01 "HgN/A
11:50 AM54 °FPassing clouds.16 mph72%30.01 "HgN/A
11:20 AM52 °FPassing clouds.17 mph77%30.01 "HgN/A
10:50 AM52 °FScattered clouds.16 mph77%30.01 "HgN/A
10:20 AM50 °FScattered clouds.16 mph76%30.01 "HgN/A
9:50 AM52 °FPartly sunny.16 mph72%29.98 "HgN/A
9:20 AM50 °FPartly sunny.16 mph76%30.01 "HgN/A
8:50 AM50 °FPartly sunny.17 mph76%29.98 "HgN/A
9:20 PM
Mon, May 25
48 °FScattered clouds.10 mph87%29.95 "HgN/A
8:50 PM48 °FSprinkles. Broken clouds.13 mph82%29.95 "Hg6 mi
8:20 PM50 °FPartly sunny.13 mph82%29.95 "HgN/A
7:50 PM52 °FPartly sunny.12 mph77%29.95 "HgN/A
7:20 PM52 °FPartly sunny.14 mph82%29.95 "HgN/A
6:50 PM52 °FBroken clouds.15 mph77%29.92 "HgN/A
6:20 PM52 °FScattered clouds.16 mph77%29.95 "HgN/A
Weather by CustomWeather, © 2015

See weather overviewHow to use our weather pages